Weather History for Buffalo, NY

Change the Weather History Date:

Wednesday, October 3, 2012

  Actual Average Record
Temperature  
Mean Temperature 66 °F 55 °F  
Max Temperature 71 °F 64 °F 86 °F (1898)
Min Temperature 61 °F 47 °F 30 °F (1974)
Degree Days  
Heating Degree Days 0 10  
Month to date heating degree days 14 29  
Since 1 July heating degree days 139 191  
Cooling Degree Days 1 0  
Month to date cooling degree days 1 0  
Year to date cooling degree days 872 540  
Growing Degree Days 16 (Base 50)    
Moisture  
Dew Point 60 °F    
Average Humidity 82    
Maximum Humidity 97    
Minimum Humidity 66    
Precipitation  
Precipitation T in 0.12 in 1.73 in (1986)
Month to date precipitation 0.20 0.36  
Year to date precipitation 21.33 29.42  
Snow  
Snow 0.00 in 0.10 in T in (1974)
Month to date snowfall 0.0 0.1  
Since 1 July snowfall 0.0 0.1  
Since 1 September snowfall 0.0 0.1  
Snow Depth 0.00 in    
Sea Level Pressure  
Sea Level Pressure 30.02 in    
Wind  
Wind Speed 6 mph (SW)    
Max Wind Speed 16 mph    
Max Gust Speed 23 mph    
Visibility 8 miles    
Events      
T = Trace of Precipitation, MM = Missing Value Source: NWS Daily Summary

Daily Weather History Graph

Daily Weather History Graph

Search for Another Location

Airport:

Trip Planner

Search our weather history database for the weather conditions in past years. The results will help you decide how hot, cold, wet, or windy it might be!

Date:

Astronomy

Oct. 03, 2012 Rise Set
Actual Time 7:15 AM EDT 6:51 PM EDT
Civil Twilight 6:46 AM EDT 7:20 PM EDT
Nautical Twilight 6:13 AM EDT 7:52 PM EDT
Astronomical Twilight 5:40 AM EDT 8:25 PM EDT
Moon 8:36 PM EDT (10/3) 10:42 AM EDT (10/3)
Length of Visible Light 12h 33m
Length of Day
11h 36m
Waning Gibbous, 89% of the Moon is Illuminated
Oct 3
Waning Gibbous
Oct 8
Last Quarter
Oct 15
New
Oct 21
First Quarter
Oct 29
Full

Hourly Weather History & Observations

Time (EDT) Temp. Dew Point Humidity Pressure Visibility Wind Dir Wind Speed Gust Speed Precip Events Conditions
12:54 AM 62.1 °F 59.0 °F 90% 29.93 in 3.0 mi ENE 5.8 mph - N/A   Overcast
1:52 AM 62.6 °F 59.0 °F 88% 29.93 in 3.0 mi ENE 5.8 mph - N/A   Mostly Cloudy
1:54 AM 62.1 °F 59.0 °F 90% 29.93 in 3.0 mi East 5.8 mph - N/A   Mostly Cloudy
2:54 AM 62.1 °F 59.0 °F 90% 29.93 in 4.0 mi East 5.8 mph - N/A   Mostly Cloudy
3:54 AM 62.1 °F 59.0 °F 90% 29.93 in 6.0 mi ESE 5.8 mph - N/A   Mostly Cloudy
4:54 AM 62.1 °F 59.0 °F 90% 29.95 in 7.0 mi Calm Calm - N/A   Mostly Cloudy
5:54 AM 61.0 °F 59.0 °F 93% 29.96 in 10.0 mi North 4.6 mph - N/A   Mostly Cloudy
6:20 AM 60.8 °F 59.0 °F 94% 29.97 in 4.0 mi NNE 4.6 mph - N/A   Mostly Cloudy
6:54 AM 62.1 °F 59.0 °F 90% 29.97 in 3.0 mi NE 4.6 mph - N/A   Overcast
7:54 AM 62.1 °F 60.1 °F 93% 29.98 in 3.0 mi Calm Calm - N/A   Mostly Cloudy
8:15 AM 62.6 °F 60.8 °F 94% 30.00 in 3.0 mi Calm Calm - N/A   Overcast
8:54 AM 63.0 °F 60.1 °F 90% 30.00 in 6.0 mi Calm Calm - N/A   Overcast
9:51 AM 64.4 °F 60.8 °F 88% 30.01 in 10.0 mi Calm Calm - N/A   Overcast
9:54 AM 64.9 °F 61.0 °F 87% 30.01 in 10.0 mi Calm Calm - N/A   Overcast
10:54 AM 66.9 °F 61.0 °F 81% 30.02 in 10.0 mi Calm Calm - N/A   Overcast
11:51 AM 68.0 °F 62.6 °F 83% 30.03 in 10.0 mi SW 4.6 mph - N/A   Overcast
11:54 AM 68.0 °F 62.1 °F 81% 30.02 in 10.0 mi WSW 4.6 mph - N/A   Overcast
12:54 PM 68.0 °F 63.0 °F 84% 30.03 in 8.0 mi SW 12.7 mph - 0.00 in   Light Drizzle
1:05 PM 66.2 °F 62.6 °F 88% 30.03 in 1.0 mi SW 12.7 mph 19.6 mph 0.00 in   Light Drizzle
1:20 PM 66.2 °F 62.6 °F 88% 30.04 in 6.0 mi WSW 16.1 mph 23.0 mph 0.00 in   Light Drizzle
1:54 PM 66.9 °F 63.0 °F 87% 30.04 in 10.0 mi SW 13.8 mph - 0.00 in   Overcast
2:17 PM 68.0 °F 62.6 °F 83% 30.03 in 10.0 mi SW 13.8 mph 19.6 mph N/A   Overcast
2:37 PM 68.0 °F 62.6 °F 83% 30.03 in 10.0 mi SW 13.8 mph - N/A   Overcast
2:54 PM 68.0 °F 62.1 °F 81% 30.04 in 10.0 mi SW 12.7 mph - N/A   Mostly Cloudy
3:54 PM 68.0 °F 60.1 °F 76% 30.05 in 10.0 mi WSW 13.8 mph - N/A   Overcast
4:54 PM 71.1 °F 59.0 °F 66% 30.05 in 10.0 mi WSW 6.9 mph - N/A   Mostly Cloudy
5:54 PM 68.0 °F 59.0 °F 73% 30.06 in 10.0 mi SSW 5.8 mph - N/A   Mostly Cloudy
6:54 PM 66.0 °F 57.9 °F 75% 30.07 in 10.0 mi SSW 4.6 mph - N/A   Mostly Cloudy
7:54 PM 64.0 °F 57.0 °F 78% 30.08 in 10.0 mi SSW 4.6 mph - N/A   Mostly Cloudy
8:54 PM 64.0 °F 57.0 °F 78% 30.10 in 10.0 mi SSW 3.5 mph - N/A   Mostly Cloudy
9:54 PM 62.1 °F 55.9 °F 80% 30.10 in 10.0 mi SSW 4.6 mph - N/A   Mostly Cloudy
10:54 PM 64.0 °F 57.9 °F 80% 30.13 in 10.0 mi WSW 9.2 mph - N/A   Mostly Cloudy
11:54 PM 63.0 °F 55.9 °F 78% 30.13 in 10.0 mi WSW 5.8 mph - N/A   Mostly Cloudy